Winchester, TN

9:12 PM CDT on April 26, 2018 (GMT -0500)
Winchester Municipal

Weather History for KBGF - January, 2013

Change the Weather History Date:

Friday, January 11, 2013

  Actual Average (KTHA) Record (KTHA)
Temperature  
Mean Temperature 66 °F -  
Max Temperature 69 °F 42 °F 68 °F (2013)
Min Temperature 62 °F 26 °F 10 °F (2016)
Growing Degree Days 16 (Base 50)    
Moisture  
Dew Point 60 °F    
Average Humidity 85    
Maximum Humidity 100    
Minimum Humidity 73    
Precipitation  
Precipitation 0.00 in - - ()
Sea Level Pressure  
Sea Level Pressure 30.08 in    
Wind  
Wind Speed 14 mph (South)    
Max Wind Speed 23 mph    
Max Gust Speed 30 mph    
Visibility 10 miles    
Events      
Averages and records for this station are not official NWS values.
T = Trace of Precipitation, MM = Missing Value Source: NWS Daily Summary

Daily Weather History Graph

Daily Weather History Graph

Search for Another Location

Airport or City:

Astronomy

Jan. 11, 2013 Rise Set
Actual Time 7:52 AM EST 5:52 PM EST
Civil Twilight 7:25 AM EST 6:19 PM EST
Nautical Twilight 6:53 AM EST 6:51 PM EST
Astronomical Twilight 6:23 AM EST 7:21 PM EST
Moon 7:27 AM EST (1/11) 6:06 PM EST (1/11)
Length of Visible Light 10h 54m
Length of Day
9h 59m
Waning Crescent, 0% of the Moon is Illuminated
Jan 11
Waning Crescent
Jan 11
New
Jan 18
First Quarter
Jan 26
Full
Feb 3
Last Quarter

Hourly Weather History & Observations

Time (EST) Temp. Dew Point Humidity Pressure Visibility Wind Dir Wind Speed Gust Speed Precip Events Conditions
12:15 AM 64.4 °F 59.0 °F 83% 30.06 in 10.0 mi SSE 23.0 mph - N/A   Overcast
12:55 AM 64.4 °F 59.0 °F 83% 30.05 in 10.0 mi SSE 21.9 mph - N/A   Overcast
1:35 AM 64.4 °F 57.2 °F 77% 30.07 in 10.0 mi South 15.0 mph - N/A   Mostly Cloudy
1:55 AM 64.4 °F 57.2 °F 77% 30.07 in 10.0 mi South 20.7 mph - N/A   Overcast
2:15 AM 64.4 °F 57.2 °F 77% 30.06 in 10.0 mi SSE 23.0 mph - N/A   Overcast
2:35 AM 64.4 °F 57.2 °F 77% 30.06 in 10.0 mi SSE 19.6 mph - N/A   Overcast
2:55 AM 64.4 °F 57.2 °F 77% 30.06 in 10.0 mi South 19.6 mph - N/A   Overcast
3:15 AM 66.2 °F 57.2 °F 73% 30.06 in 10.0 mi South 19.6 mph - N/A   Overcast
3:35 AM 66.2 °F 57.2 °F 73% 30.06 in 10.0 mi South 19.6 mph - N/A   Overcast
3:55 AM 64.4 °F 59.0 °F 83% 30.06 in 10.0 mi South 18.4 mph 29.9 mph N/A   Overcast
4:15 AM 64.4 °F 59.0 °F 83% 30.06 in 6.0 mi South 11.5 mph - N/A   Overcast
4:35 AM 62.6 °F 59.0 °F 88% 30.06 in 5.0 mi South 10.4 mph - N/A   Overcast
4:55 AM 62.6 °F 60.8 °F 94% 30.05 in 6.0 mi South 18.4 mph - N/A   Overcast
5:15 AM 62.6 °F 59.0 °F 88% 30.06 in 10.0 mi South 11.5 mph - N/A   Overcast
5:35 AM 62.6 °F 59.0 °F 88% 30.04 in 10.0 mi South 12.7 mph - N/A   Overcast
5:55 AM 64.4 °F 59.0 °F 83% 30.04 in 10.0 mi South 11.5 mph - N/A   Overcast
6:15 AM 64.4 °F 59.0 °F 83% 30.05 in 10.0 mi South 12.7 mph - N/A   Overcast
6:35 AM 64.4 °F 59.0 °F 83% 30.05 in 10.0 mi South 11.5 mph - N/A   Overcast
6:55 AM 62.6 °F 59.0 °F 88% 30.07 in 9.0 mi South 10.4 mph - N/A   Overcast
7:15 AM 62.6 °F 60.8 °F 94% 30.07 in 9.0 mi South 12.7 mph - N/A   Overcast
7:55 AM 62.6 °F 59.0 °F 88% 30.08 in 10.0 mi South 10.4 mph - N/A   Overcast
8:15 AM 62.6 °F 59.0 °F 88% 30.09 in 10.0 mi SSW 11.5 mph - N/A   Overcast
8:35 AM 62.6 °F 60.8 °F 94% 30.09 in 10.0 mi South 9.2 mph - N/A   Overcast
8:55 AM 62.6 °F 60.8 °F 94% 30.10 in 10.0 mi South 10.4 mph - N/A   Overcast
9:15 AM 62.6 °F 60.8 °F 94% 30.12 in 10.0 mi SSW 6.9 mph - N/A   Overcast
9:35 AM 62.6 °F 60.8 °F 94% 30.12 in 10.0 mi South 5.8 mph - N/A   Overcast
9:55 AM 64.4 °F 60.8 °F 88% 30.12 in 10.0 mi South 6.9 mph - N/A   Overcast
10:15 AM 64.4 °F 60.8 °F 88% 30.13 in 10.0 mi South 6.9 mph - N/A   Overcast
10:35 AM 64.4 °F 60.8 °F 88% 30.13 in 10.0 mi South 8.1 mph - N/A   Overcast
10:55 AM 66.2 °F 60.8 °F 83% 30.12 in 10.0 mi South 8.1 mph - N/A   Mostly Cloudy
11:15 AM 66.2 °F 60.8 °F 83% 30.12 in 10.0 mi SSW 8.1 mph - N/A   Mostly Cloudy
11:35 AM 68.0 °F 60.8 °F 78% 30.12 in 10.0 mi South 10.4 mph - N/A   Overcast
11:55 AM 66.2 °F 60.8 °F 83% 30.11 in 10.0 mi SSW 10.4 mph - N/A   Overcast
12:15 PM 68.0 °F 60.8 °F 78% 30.10 in 10.0 mi SSW 11.5 mph - N/A   Mostly Cloudy
12:35 PM 68.0 °F 60.8 °F 78% 30.09 in 10.0 mi SSW 10.4 mph - N/A   Mostly Cloudy
12:55 PM 68.0 °F 60.8 °F 78% 30.09 in 10.0 mi SSW 10.4 mph - N/A   Mostly Cloudy
1:15 PM 69.8 °F 60.8 °F 73% 30.07 in 10.0 mi SW 11.5 mph - N/A   Scattered Clouds
1:35 PM 68.0 °F 60.8 °F 78% 30.07 in 10.0 mi SSW 12.7 mph - N/A   Mostly Cloudy
1:55 PM 68.0 °F 60.8 °F 78% 30.07 in 10.0 mi SSW 6.9 mph - N/A   Overcast
2:15 PM 69.8 °F 60.8 °F 73% 30.06 in 10.0 mi SW 6.9 mph - N/A   Mostly Cloudy
2:35 PM 69.8 °F 60.8 °F 73% 30.06 in 10.0 mi SSW 8.1 mph - N/A   Mostly Cloudy
3:15 PM 69.8 °F 60.8 °F 73% 30.06 in 10.0 mi South 8.1 mph - N/A   Mostly Cloudy
3:35 PM 69.8 °F 60.8 °F 73% 30.06 in 10.0 mi SSW 9.2 mph - N/A   Overcast
3:55 PM 68.0 °F 60.8 °F 78% 30.06 in 10.0 mi South 10.4 mph - N/A   Overcast
4:15 PM 68.0 °F 60.8 °F 78% 30.06 in 10.0 mi SSW 10.4 mph - N/A   Overcast
4:35 PM 68.0 °F 60.8 °F 78% 30.07 in 10.0 mi SSW 8.1 mph - N/A   Overcast
4:55 PM 66.2 °F 60.8 °F 83% 30.07 in 10.0 mi SSW 8.1 mph - N/A   Overcast
5:15 PM 66.2 °F 60.8 °F 83% 30.06 in 10.0 mi South 5.8 mph - N/A   Mostly Cloudy
5:35 PM 66.2 °F 60.8 °F 83% 30.06 in 10.0 mi South 9.2 mph - N/A   Scattered Clouds
5:55 PM 66.2 °F 60.8 °F 83% 30.06 in 10.0 mi South 10.4 mph - N/A   Overcast
6:15 PM 66.2 °F 60.8 °F 83% 30.07 in 10.0 mi South 8.1 mph - N/A   Overcast
6:35 PM 66.2 °F 60.8 °F 83% 30.07 in 10.0 mi South 6.9 mph - N/A   Overcast
6:55 PM 64.4 °F 60.8 °F 88% 30.07 in 10.0 mi South 5.8 mph - N/A   Overcast
7:15 PM 66.2 °F 60.8 °F 83% 30.08 in 10.0 mi South 5.8 mph - N/A   Overcast
7:35 PM 64.4 °F 60.8 °F 88% 30.08 in 10.0 mi South 6.9 mph - N/A   Overcast
7:55 PM 64.4 °F 60.8 °F 88% 30.08 in 10.0 mi South 5.8 mph - N/A   Overcast
8:15 PM 64.4 °F 62.6 °F 94% 30.08 in 5.0 mi South 6.9 mph - N/A   Overcast
8:35 PM 62.6 °F 62.6 °F 100% 30.08 in 9.0 mi SSE 5.8 mph - N/A   Overcast
8:55 PM 62.6 °F 62.6 °F 100% 30.08 in 8.0 mi SSE 5.8 mph - N/A   Overcast
9:15 PM 62.6 °F 62.6 °F 100% 30.09 in 5.0 mi South 3.5 mph - N/A   Overcast
9:35 PM 62.6 °F 62.6 °F 100% 30.09 in 4.0 mi South 4.6 mph - N/A   Overcast
9:55 PM 62.6 °F 62.6 °F 100% 30.09 in 7.0 mi SSE 5.8 mph - N/A   Overcast
10:15 PM 62.6 °F 62.6 °F 100% 30.09 in 10.0 mi SSE 3.5 mph - N/A   Overcast
10:35 PM 62.6 °F 62.6 °F 100% 30.08 in 10.0 mi SSE 5.8 mph - N/A   Overcast
10:55 PM 64.4 °F 62.6 °F 94% 30.08 in 10.0 mi South 5.8 mph - N/A   Overcast
11:15 PM 66.2 °F 62.6 °F 88% 30.08 in 10.0 mi South 4.6 mph - N/A   Overcast
11:35 PM 64.4 °F 62.6 °F 94% 30.08 in 10.0 mi South 5.8 mph - N/A   Overcast
11:55 PM 66.2 °F 62.6 °F 88% 30.07 in 10.0 mi South 8.1 mph - N/A   Overcast